User: anonymous   Login
Location: Vancouver
(49.2500°N, 123.1330°W)
Time: 00:51:05
(UTC-07:00)
Language:

H-2A R/B - Orbit

View from above orbital plane
View from above orbital plane
View from above satellite
View from above satellite

Ground track
Ground track

The orbit data is extracted from the following two-line orbital elements,

1 27601U 02056E   15241.34994850  .00000095  00000-0  49797-4 0  9998
2 27601 098.4500 318.1450 0073467 084.0385 317.1925 14.31630859663688
Epoch (UTC): 29 August 2015 08:23:55
Eccentricity: 0.0073467
inclination: 98.4500°
perigee height: 733 km
apogee height: 839 km
right ascension of ascending node: 318.1450°
argument of perigee: 84.0385°
revolutions per day: 14.31630859
mean anomaly at epoch: 317.1925°
orbit number at epoch: 66368

The dashed part of the orbit path shows where the satellite is in the earth's shadow,  

DLR